SCP
0 0 0 0 0 0 0 0 0 0 1 1 1 2 3 3 2 2 3 4 4 5 6 7 8 9 10 11 10 9 10 11 11 8 7 6 6 5 4 4 4 4 4 3
0 0 0 0 0 0 0 0 0 0 1 1 2 2 2 2 2 2 3 3 4 5 6 6 7 8 10 11 11 10 10 10 9 7 6 6 6 6 5 4 4 4 4 3
0 0 0 0 0 0 0 0 0 0 1 1 1 1 1 1 2 1 2 2 3 4 4 5 6 7 9 11 12 11 10 8 6 6 5 6 6 5 5 5 5 5 5 4
0 0 0 0 0 0 0 0 0 0 0 1 1 1 1 1 1 1 1 1 1 2 3 4 5 6 7 10 13 12 9 7 5 5 4 4 4 4 4 4 5 5 5 4
0 0 0 0 0 0 0 0 0 0 0 0 0 0 1 1 1 1 1 1 1 1 2 3 4 4 6 10 12 12 8 6 5 4 4 3 3 3 3 3 3 3 4 4
0 0 0 0 0 0 0 0 0 0 0 0 0 0 1 1 1 1 1 1 1 1 1 2 2 3 5 9 11 10 7 5 4 3 3 3 2 2 2 2 2 2 2 2
0 0 0 0 0 0 0 0 0 0 0 0 0 0 0 1 1 1 1 1 1 1 1 1 2 3 5 7 8 7 5 4 3 3 2 2 2 2 2 2 1 1 1 1
0 0 0 0 0 0 0 0 0 0 0 0 0 0 0 0 0 0 0 1 1 1 1 1 2 3 4 5 4 4 4 3 3 2 2 2 2 2 2 2 1 0 0 0
0 0 0 0 0 0 0 0 0 0 0 0 0 0 0 0 0 0 0 1 1 2 1 1 2 3 4 3 2 3 3 3 2 2 1 1 1 2 2 1 1 0 0 0
0 0 0 0 0 0 0 0 0 0 0 0 0 0 0 0 0 0 0 1 1 1 1 1 1 2 3 3 2 2 3 3 3 2 2 1 1 1 1 1 0 0 0 0
0 0 0 0 0 0 0 0 0 0 0 0 0 0 0 0 0 0 0 1 1 1 1 1 1 1 2 2 2 3 3 3 3 2 2 2 1 1 1 1 0 0 0 0
0 0 0 0 0 0 0 0 0 0 0 0 0 0 0 0 0 0 0 0 1 1 1 1 1 1 2 2 3 4 4 4 3 3 3 2 2 2 1 1 1 0 0 0
0 0 0 0 0 0 0 0 0 0 0 0 0 0 1 0 0 0 0 0 1 2 2 1 1 1 2 2 3 4 4 4 4 4 3 3 2 2 1 1 1 1 0 0
1 1 0 0 0 0 0 0 0 0 0 0 0 1 1 1 1 1 1 1 1 2 2 2 2 2 2 2 3 4 4 5 5 5 4 3 2 2 2 1 1 1 1 1
1 1 1 0 0 0 0 0 0 0 0 0 0 1 1 1 1 1 1 1 1 2 2 2 2 2 2 2 3 4 4 5 5 5 4 3 2 2 2 2 2 1 1 1
0 1 1 1 1 0 1 1 1 0 0 0 1 1 2 2 1 1 2 2 1 1 2 2 2 2 2 2 2 3 4 5 5 5 4 3 3 3 3 2 2 1 1 1
0 1 1 1 1 1 1 1 1 1 1 1 1 1 2 2 2 2 2 2 2 2 2 2 1 1 1 1 1 2 3 5 5 5 5 4 4 4 3 3 2 2 1 1
0 1 1 1 1 1 1 1 1 2 2 2 2 2 2 2 2 2 2 2 2 2 2 2 2 1 1 1 1 1 3 4 5 6 6 5 5 4 4 3 2 2 2 2
0 1 1 1 1 1 1 1 1 2 3 3 2 2 2 2 3 3 3 2 2 2 2 2 2 1 1 1 1 1 2 3 4 5 5 5 5 4 4 3 2 2 2 2
1 1 1 1 1 1 1 1 2 2 3 3 2 2 3 3 3 3 3 2 2 2 2 2 1 1 1 1 1 2 2 3 4 4 4 3 4 4 3 2 2 2 2 2
1 1 1 1 1 1 1 1 1 2 2 2 2 3 4 4 4 3 3 2 2 2 2 2 1 1 1 1 1 1 2 2 3 3 2 2 3 3 3 2 2 1 1 1
0 1 1 1 0 1 1 1 1 1 2 2 3 4 5 5 4 3 2 2 1 1 1 1 1 1 1 1 1 1 2 2 2 2 2 2 2 2 2 1 1 1 1 1
0 0 0 0 0 0 1 1 2 2 2 2 3 4 5 4 3 2 1 1 1 1 1 1 1 1 1 1 2 2 1 1 1 1 1 1 1 1 1 1 1 1 1 1
0 0 0 0 0 1 1 2 2 2 2 3 3 3 3 3 2 1 1 1 1 1 1 1 1 1 1 1 2 1 1 1 1 1 1 0 0 0 0 0 0 0 0 0
0 0 0 0 0 1 1 1 2 2 2 2 2 2 2 1 2 2 1 1 1 1 1 1 1 1 1 1 1 1 1 0 0 0 0 0 0 0 0 0 0 0 0 0
0 0 0 0 0 0 1 1 1 2 1 2 1 1 1 1 2 2 1 1 1 1 1 1 1 1 1 1 1 1 0 0 0 0 0 0 0 0 0 0 0 0 0 0
Wind_Speed
3 1 5 9 9 10 9 9 10 9 4 4 5 5 6 7 7 7 7 7 8 7 6 6 8 10 10 9 9 10 10 8 8 6 6 5 5 4 3 3 5 5 5 6
3 7 13 11 11 11 10 9 8 6 1 3 3 3 4 6 9 8 8 8 8 7 6 6 7 8 9 10 10 10 10 8 7 6 5 4 5 4 4 3 4 5 6 6
9 11 9 10 12 11 10 7 6 5 1 5 5 2 2 2 3 5 7 7 7 9 9 9 8 9 9 10 11 11 10 9 8 7 5 5 4 3 2 3 3 4 5 5
8 12 12 11 11 9 9 8 4 2 4 2 2 1 5 3 2 3 5 6 7 7 8 8 9 9 11 11 10 10 10 9 8 8 8 8 6 5 5 4 3 3 5 6
8 7 8 10 12 9 8 5 0 2 5 3 4 2 5 1 4 6 7 9 9 9 9 9 10 10 10 11 11 10 10 9 8 8 8 8 5 4 4 4 5 4 3 5
11 9 7 10 11 8 4 2 5 6 6 3 1 2 6 4 6 6 7 9 10 10 9 9 9 8 8 8 9 10 9 8 8 8 8 8 8 7 7 6 5 4 3 3
9 11 9 7 8 8 1 4 4 5 5 2 2 2 8 8 7 7 9 10 10 10 10 9 10 10 10 10 10 10 10 9 8 9 8 8 8 9 9 8 7 5 3 3
7 9 8 5 7 7 4 8 7 5 4 3 2 4 9 9 7 5 7 9 10 11 10 11 11 11 11 12 11 11 11 9 9 8 8 7 8 6 6 7 7 6 5 5
8 9 6 5 5 6 3 3 7 7 3 1 2 6 10 6 4 3 6 10 11 12 12 12 12 11 11 12 11 11 11 9 8 8 7 7 7 7 7 7 6 5 4 5
9 6 6 4 2 2 6 6 5 6 4 2 3 4 6 6 6 3 4 8 11 11 12 12 12 11 11 11 10 10 10 10 9 8 8 7 7 7 7 6 7 6 6 6
5 6 5 2 2 5 1 3 5 4 5 6 4 7 8 9 8 6 7 9 11 13 13 13 12 11 11 10 11 11 10 9 9 9 7 7 6 6 6 6 7 7 6 7
1 5 3 6 5 4 6 6 7 6 4 5 5 7 6 8 7 7 7 8 10 12 12 12 12 11 11 11 12 12 11 11 10 10 8 8 7 6 6 7 7 7 7 8
1 5 1 6 6 3 2 4 5 6 5 4 5 6 4 2 3 6 7 7 9 10 11 10 11 11 11 12 12 12 12 12 10 10 9 8 8 8 8 7 7 7 7 7
2 3 6 8 8 4 3 4 6 6 4 4 7 6 4 4 4 5 6 7 8 10 10 11 11 10 11 11 12 12 12 11 11 10 9 9 9 9 8 7 7 8 8 8
4 1 3 5 6 5 6 7 7 6 8 7 7 7 8 8 6 5 6 7 8 9 9 10 10 9 9 9 9 10 11 10 11 10 10 10 8 7 7 7 7 7 8 9
3 1 1 3 3 3 3 6 7 7 6 6 5 6 5 4 3 2 4 6 7 9 10 9 9 9 9 9 10 10 10 10 10 11 11 10 9 9 8 8 7 7 7 7
1 2 2 2 4 3 3 5 6 4 3 6 7 6 3 4 5 5 5 6 7 7 8 8 8 8 9 9 9 10 11 10 10 11 10 10 10 9 8 8 7 8 8 7
4 3 3 1 1 5 7 3 3 4 2 2 3 3 5 7 6 4 4 6 6 5 6 6 5 4 4 5 6 7 7 8 9 9 8 8 8 8 7 6 7 7 6 6
3 5 3 3 3 4 5 2 1 2 0 1 4 5 5 8 9 6 3 4 6 6 5 4 4 4 4 3 4 5 6 7 7 7 7 7 7 6 6 6 6 6 5 5
2 3 4 3 3 4 5 5 4 2 1 1 4 7 6 5 5 2 2 5 7 7 6 5 5 6 5 3 4 6 5 5 4 4 4 5 5 6 6 7 6 4 4 5
2 1 2 3 3 4 3 6 2 3 5 1 4 7 7 4 4 5 6 7 8 8 8 7 8 7 5 5 8 8 7 5 4 4 4 4 4 4 5 4 3 4 4 3
1 1 1 2 2 4 5 3 1 3 1 3 6 7 11 11 10 9 9 9 10 9 8 8 9 8 7 7 8 9 6 4 4 5 4 4 3 2 2 3 2 3 4 3
2 3 3 3 3 2 2 1 1 1 4 4 6 8 12 12 11 10 9 9 9 9 8 8 9 10 8 7 7 8 4 4 5 5 4 4 4 2 2 3 3 3 2 3
3 1 1 1 1 2 2 4 4 5 5 6 7 9 12 13 11 10 10 9 9 9 8 8 9 10 8 7 7 6 5 5 6 5 4 3 3 3 3 3 2 3 2 2
2 1 1 1 1 3 5 4 4 7 8 10 10 10 11 14 13 11 10 9 8 8 7 7 8 8 7 6 7 6 5 6 6 4 3 2 2 2 2 2 2 2 2 3
1 1 2 2 1 2 1 2 6 9 10 11 13 13 11 11 13 12 10 8 8 8 7 8 8 7 6 6 6 5 5 5 5 4 3 2 1 1 1 1 1 1 1 2
Wind_Direction
247 165 240 240 223 226 252 267 275 275 237 165 196 202 185 169 168 174 172 169 172 177 177 162 163 162 159 156 156 153 157 160 151 143 143 142 146 150 148 154 149 141 136 135
299 257 245 249 257 257 260 268 277 292 270 137 163 182 189 183 186 178 174 180 176 163 161 166 171 167 164 164 158 154 160 166 159 152 151 148 144 149 151 150 145 145 143 143
220 246 253 256 263 267 269 251 237 239 37 55 95 14 269 238 190 174 174 177 173 172 170 173 174 172 167 170 169 165 167 167 161 150 140 127 108 101 117 142 154 160 148 142
243 251 258 263 267 264 268 263 231 184 97 23 58 206 280 266 267 208 184 173 179 176 174 177 180 177 178 179 172 163 164 165 162 155 150 151 152 159 175 167 166 163 150 147
238 244 248 258 260 260 251 253 130 104 114 82 23 105 290 327 246 230 200 185 186 181 180 183 183 181 181 177 172 165 165 167 166 162 159 157 156 163 154 150 155 158 155 156
243 256 246 249 264 263 238 46 48 52 70 63 268 153 264 231 228 228 203 193 189 183 182 184 180 172 173 171 168 163 166 170 171 165 163 163 165 164 158 162 165 165 159 154
268 272 264 258 274 289 306 85 29 357 11 264 246 206 249 247 242 221 210 197 192 183 180 178 174 173 173 174 173 169 171 177 177 171 173 172 171 169 171 171 172 168 165 169
223 267 258 243 219 227 229 143 159 200 225 263 319 261 261 270 272 238 206 188 184 183 182 180 179 176 175 176 176 175 176 177 179 176 178 176 170 170 175 175 172 177 177 178
198 239 252 248 243 182 196 192 168 139 140 115 268 286 297 290 293 230 188 175 182 185 181 180 180 179 178 178 179 177 175 174 181 179 172 172 170 169 171 172 170 173 177 176
179 230 262 258 303 287 171 154 102 117 145 193 239 245 247 268 263 234 191 187 186 182 179 179 180 181 182 181 176 173 173 178 180 177 176 175 173 172 170 167 173 176 177 172
163 186 270 310 210 227 172 113 119 125 152 156 209 254 227 220 221 211 205 198 189 186 182 181 181 180 179 176 175 176 176 174 175 176 177 173 175 173 167 171 178 179 177 172
207 150 229 254 250 203 167 166 145 150 205 171 171 253 256 210 209 200 206 199 192 189 183 181 179 177 176 177 178 180 181 182 183 179 177 179 179 177 178 180 182 178 176 177
20 110 83 332 332 356 132 163 152 138 137 162 168 248 274 230 208 208 201 193 189 184 180 177 178 180 180 180 182 185 185 187 185 179 179 180 182 184 187 186 183 178 175 177
92 121 169 202 223 224 217 196 159 132 154 195 204 209 238 218 219 217 187 181 176 177 179 178 178 181 184 184 184 185 189 188 184 182 182 185 189 192 192 187 183 182 179 179
63 146 233 228 229 217 214 206 185 177 183 186 211 202 215 202 208 210 183 164 162 168 171 174 176 177 180 184 188 189 189 187 184 181 187 193 191 192 192 189 187 186 187 191
62 170 344 318 297 249 231 219 201 194 186 192 190 230 229 187 167 165 157 153 164 173 175 175 174 171 176 182 187 188 189 186 180 184 192 191 186 192 195 194 190 189 192 193
131 132 98 279 304 341 267 229 197 180 189 171 195 221 180 151 154 172 160 151 159 169 166 166 173 178 184 189 189 190 191 185 182 190 193 190 189 192 196 196 189 191 194 193
154 137 139 172 50 231 244 270 149 143 164 160 167 169 152 144 137 116 122 138 140 146 139 140 147 157 174 179 184 189 180 177 183 188 192 192 190 193 193 193 197 202 196 194
157 147 142 151 194 257 282 311 15 141 281 98 137 124 122 112 88 59 62 113 124 120 114 119 128 141 145 149 162 153 158 165 171 179 184 184 181 184 185 196 204 204 198 198
38 118 145 158 168 227 256 298 310 85 289 294 144 145 141 107 107 133 95 99 97 90 89 91 88 83 87 92 110 113 121 126 138 154 157 155 162 175 187 199 201 201 203 206
348 15 161 175 201 245 287 304 342 159 218 215 137 133 120 114 136 129 94 86 87 85 83 83 82 79 75 82 93 94 91 96 112 111 110 116 141 174 184 183 181 179 184 184
221 193 176 164 194 252 330 355 108 219 210 112 103 109 107 106 103 93 87 85 85 82 79 81 83 77 65 72 90 89 87 90 89 87 87 89 90 112 139 139 164 169 163 158
227 201 184 183 206 266 315 279 269 150 116 107 104 111 112 112 107 98 91 85 82 83 82 81 83 78 66 65 84 91 82 80 82 81 75 75 78 79 100 122 123 107 115 131
280 273 125 93 303 318 352 38 41 64 91 99 102 109 111 113 108 101 95 89 85 84 84 82 83 80 68 60 64 69 67 76 83 78 67 65 81 83 81 96 112 124 139 145
260 222 130 142 277 12 24 38 68 80 83 83 83 94 107 111 105 101 96 90 89 85 80 82 84 82 74 66 63 60 64 72 76 74 69 64 63 81 84 95 135 159 193 183
311 189 163 207 235 119 45 66 94 96 100 102 97 91 92 101 104 100 96 94 91 86 84 81 78 77 72 68 62 54 64 75 76 63 51 54 56 62 80 88 30 343 262 225